Year,Month,Day,Hour,Minute,Value (Times are PST for temperature in C)
2015,05,31,00,00,11.70
2015,05,31,00,01,11.70
2015,05,31,00,02,11.70
2015,05,31,00,03,11.70
2015,05,31,00,04,11.70
2015,05,31,00,05,11.60
2015,05,31,00,06,11.60
2015,05,31,00,07,11.60
2015,05,31,00,08,11.60
2015,05,31,00,09,11.60
2015,05,31,00,10,11.60
2015,05,31,00,11,11.60
2015,05,31,00,12,11.60
2015,05,31,00,13,11.60
2015,05,31,00,14,11.60
2015,05,31,00,15,11.60
2015,05,31,00,16,11.60
2015,05,31,00,17,11.60
2015,05,31,00,18,11.60
2015,05,31,00,19,11.60
2015,05,31,00,20,11.60
2015,05,31,00,21,11.60
2015,05,31,00,22,11.60
2015,05,31,00,23,11.60
2015,05,31,00,24,11.60
2015,05,31,00,25,11.60
2015,05,31,00,26,11.60
2015,05,31,00,27,11.60
2015,05,31,00,28,11.60
2015,05,31,00,29,11.50
2015,05,31,00,30,11.50
2015,05,31,00,31,11.50
2015,05,31,00,32,11.50
2015,05,31,00,33,11.40
2015,05,31,00,34,11.40
2015,05,31,00,35,11.40
2015,05,31,00,36,11.40
2015,05,31,00,37,11.40
2015,05,31,00,38,11.40
2015,05,31,00,39,11.40
2015,05,31,00,40,11.40
2015,05,31,00,41,11.40
2015,05,31,00,42,11.40
2015,05,31,00,43,11.40
2015,05,31,00,44,11.40
2015,05,31,00,45,11.40
2015,05,31,00,46,11.30
2015,05,31,00,47,11.30
2015,05,31,00,48,11.30
2015,05,31,00,49,11.30
2015,05,31,00,50,11.30
2015,05,31,00,51,11.30
2015,05,31,00,52,11.20
2015,05,31,00,53,11.20
2015,05,31,00,54,11.20
2015,05,31,00,55,11.20
2015,05,31,00,56,11.20
2015,05,31,00,57,11.10
2015,05,31,00,58,11.10
2015,05,31,00,59,11.00
2015,05,31,01,00,11.00
2015,05,31,01,01,11.00
2015,05,31,01,02,10.90
2015,05,31,01,03,10.90
2015,05,31,01,04,10.80
2015,05,31,01,05,10.80
2015,05,31,01,06,10.80
2015,05,31,01,07,10.80
2015,05,31,01,08,10.80
2015,05,31,01,09,10.80
2015,05,31,01,10,10.70
2015,05,31,01,11,10.70
2015,05,31,01,12,10.70
2015,05,31,01,13,10.70
2015,05,31,01,14,10.60
2015,05,31,01,15,10.60
2015,05,31,01,16,10.60
2015,05,31,01,17,10.60
2015,05,31,01,18,10.60
2015,05,31,01,19,10.60
2015,05,31,01,20,10.60
2015,05,31,01,21,10.60
2015,05,31,01,22,10.50
2015,05,31,01,23,10.60
2015,05,31,01,24,10.50
2015,05,31,01,25,10.60
2015,05,31,01,26,10.50
2015,05,31,01,27,10.50
2015,05,31,01,28,10.50
2015,05,31,01,29,10.60
2015,05,31,01,30,10.60
2015,05,31,01,31,10.60
2015,05,31,01,32,10.60
2015,05,31,01,33,10.60
2015,05,31,01,34,10.60
2015,05,31,01,35,10.60
2015,05,31,01,36,10.60
2015,05,31,01,37,10.60
2015,05,31,01,38,10.60
2015,05,31,01,39,10.60
2015,05,31,01,40,10.60
2015,05,31,01,41,10.60
2015,05,31,01,42,10.60
2015,05,31,01,43,10.60
2015,05,31,01,44,10.60
2015,05,31,01,45,10.70
2015,05,31,01,46,10.70
2015,05,31,01,47,10.70
2015,05,31,01,48,10.70
2015,05,31,01,49,10.70
2015,05,31,01,50,10.70
2015,05,31,01,51,10.70
2015,05,31,01,52,10.70
2015,05,31,01,53,10.70
2015,05,31,01,54,10.70
2015,05,31,01,55,10.80
2015,05,31,01,56,10.80
2015,05,31,01,57,10.80
2015,05,31,01,58,10.80
2015,05,31,01,59,10.80
2015,05,31,02,00,10.80
2015,05,31,02,01,10.80
2015,05,31,02,02,10.80
2015,05,31,02,03,10.80
2015,05,31,02,04,10.80
2015,05,31,02,05,10.80
2015,05,31,02,06,10.80
2015,05,31,02,07,10.80
2015,05,31,02,08,10.70
2015,05,31,02,09,10.70
2015,05,31,02,10,10.70
2015,05,31,02,11,10.70
2015,05,31,02,12,10.70
2015,05,31,02,13,10.70
2015,05,31,02,14,10.70
2015,05,31,02,15,10.60
2015,05,31,02,16,10.60
2015,05,31,02,17,10.60
2015,05,31,02,18,10.60
2015,05,31,02,19,10.60
2015,05,31,02,20,10.60
2015,05,31,02,21,10.60
2015,05,31,02,22,10.60
2015,05,31,02,23,10.60
2015,05,31,02,24,10.60
2015,05,31,02,25,10.60
2015,05,31,06,05,9.60
2015,05,31,06,06,9.60
2015,05,31,06,07,9.60
2015,05,31,06,08,9.70
2015,05,31,06,09,9.70
2015,05,31,06,10,9.80
2015,05,31,06,11,9.80
2015,05,31,06,12,9.80
2015,05,31,06,13,9.80
2015,05,31,06,14,9.80
2015,05,31,06,15,9.90
2015,05,31,06,16,9.90
2015,05,31,06,17,9.90
2015,05,31,06,18,9.90
2015,05,31,06,19,9.90
2015,05,31,06,20,10.00
2015,05,31,06,21,10.00
2015,05,31,06,22,10.10
2015,05,31,06,23,10.10
2015,05,31,06,24,10.20
2015,05,31,06,25,10.20
2015,05,31,06,26,10.20
2015,05,31,06,27,10.20
2015,05,31,06,28,10.30
2015,05,31,06,29,10.30
2015,05,31,06,30,10.30
2015,05,31,06,31,10.30
2015,05,31,06,32,10.30
2015,05,31,06,33,10.40
2015,05,31,06,34,10.40
2015,05,31,06,35,10.40
2015,05,31,06,36,10.50
2015,05,31,06,37,10.50
2015,05,31,06,38,10.50
2015,05,31,06,39,10.60
2015,05,31,06,40,10.60
2015,05,31,06,41,10.70
2015,05,31,06,42,10.70
2015,05,31,06,43,10.70
2015,05,31,06,44,10.80
2015,05,31,06,45,10.80
2015,05,31,06,46,10.80
2015,05,31,06,47,10.90
2015,05,31,06,48,10.90
2015,05,31,06,49,11.00
2015,05,31,06,50,11.10
2015,05,31,06,51,11.10
2015,05,31,06,52,11.20
2015,05,31,06,53,11.20
2015,05,31,06,54,11.20
2015,05,31,06,55,11.30
2015,05,31,06,56,11.30
2015,05,31,06,57,11.30
2015,05,31,06,58,11.40
2015,05,31,06,59,11.50
2015,05,31,07,00,11.50
2015,05,31,07,01,11.60
2015,05,31,07,02,11.70
2015,05,31,07,03,11.80
2015,05,31,07,04,11.80
2015,05,31,07,05,11.90
2015,05,31,07,06,12.00
2015,05,31,07,07,12.10
2015,05,31,07,08,12.10
2015,05,31,07,09,12.20
2015,05,31,07,10,12.30
2015,05,31,07,11,12.40
2015,05,31,07,12,12.50
2015,05,31,07,13,12.50
2015,05,31,07,14,12.60
2015,05,31,07,15,12.70
2015,05,31,07,16,12.70
2015,05,31,07,17,12.80
2015,05,31,07,18,12.90
2015,05,31,07,19,12.90
2015,05,31,07,20,12.90
2015,05,31,07,21,12.90
2015,05,31,07,22,13.00
2015,05,31,07,23,13.00
2015,05,31,07,24,13.00
2015,05,31,07,25,13.10
2015,05,31,07,26,13.10
2015,05,31,07,27,13.10
2015,05,31,07,28,13.20
2015,05,31,07,29,13.20
2015,05,31,07,30,13.30
2015,05,31,07,31,13.30
2015,05,31,07,32,13.30
2015,05,31,07,33,13.40
2015,05,31,07,34,13.40
2015,05,31,07,35,13.40
2015,05,31,07,36,13.50
2015,05,31,07,37,13.50
2015,05,31,07,38,13.50
2015,05,31,07,39,13.60
2015,05,31,07,40,13.60
2015,05,31,07,41,13.60
2015,05,31,07,42,13.70
2015,05,31,07,43,13.70
2015,05,31,07,44,13.70
2015,05,31,07,45,13.80
2015,05,31,07,46,13.80
2015,05,31,07,47,13.80
2015,05,31,07,48,13.90
2015,05,31,07,49,13.90
2015,05,31,07,50,13.90
2015,05,31,07,51,14.00
2015,05,31,07,52,14.00
2015,05,31,07,53,14.00
2015,05,31,07,54,14.10
2015,05,31,07,55,14.10
2015,05,31,07,56,14.20
2015,05,31,07,57,14.20
2015,05,31,07,58,14.30
2015,05,31,07,59,14.30
2015,05,31,08,00,14.40
2015,05,31,08,01,14.50
2015,05,31,08,02,14.60
2015,05,31,08,03,14.70
2015,05,31,08,04,14.70
2015,05,31,08,05,14.70
2015,05,31,08,06,14.80
2015,05,31,08,07,14.80
2015,05,31,08,08,14.80
2015,05,31,08,09,14.90
2015,05,31,08,10,15.00
2015,05,31,08,11,15.00
2015,05,31,08,12,15.10
2015,05,31,08,13,15.10
2015,05,31,08,14,15.20
2015,05,31,08,15,15.20
2015,05,31,08,16,15.20
2015,05,31,08,17,15.20
2015,05,31,08,18,15.20
2015,05,31,08,19,15.10
2015,05,31,08,20,15.00
2015,05,31,08,21,14.90
2015,05,31,08,22,14.90
2015,05,31,08,23,14.80
2015,05,31,08,24,14.80
2015,05,31,08,25,14.80
2015,05,31,08,26,14.70
2015,05,31,08,27,14.60
2015,05,31,08,28,14.60
2015,05,31,08,29,14.60
2015,05,31,08,30,14.50
2015,05,31,08,31,14.50
2015,05,31,08,32,14.60
2015,05,31,08,33,14.60
2015,05,31,08,34,14.70
2015,05,31,08,35,14.80
2015,05,31,08,36,14.90
2015,05,31,08,37,15.00
2015,05,31,08,38,15.10
2015,05,31,08,39,15.20
2015,05,31,08,40,15.30
2015,05,31,08,41,15.30
2015,05,31,08,42,15.40
2015,05,31,08,43,15.40
2015,05,31,08,44,15.50
2015,05,31,08,45,15.50
2015,05,31,08,46,15.60
2015,05,31,08,47,15.70
2015,05,31,08,48,15.70
2015,05,31,08,49,15.80
2015,05,31,08,50,15.90
2015,05,31,08,51,15.90
2015,05,31,08,52,15.90
2015,05,31,08,53,15.90
2015,05,31,08,54,15.90
2015,05,31,08,55,15.90
2015,05,31,08,56,15.80
2015,05,31,08,57,15.80
2015,05,31,08,58,15.80
2015,05,31,08,59,15.80
2015,05,31,09,00,15.70
2015,05,31,09,01,15.70
2015,05,31,09,02,15.70
2015,05,31,09,03,15.60
2015,05,31,09,04,15.60
2015,05,31,09,05,15.50
2015,05,31,09,06,15.50
2015,05,31,09,07,15.50
2015,05,31,09,08,15.40
2015,05,31,09,09,15.40
2015,05,31,09,10,15.40
2015,05,31,09,11,15.40
2015,05,31,09,12,15.40
2015,05,31,09,13,15.40
2015,05,31,09,14,15.40
2015,05,31,09,15,15.40
2015,05,31,09,16,15.40
2015,05,31,09,17,15.30
2015,05,31,09,18,15.30
2015,05,31,09,19,15.30
2015,05,31,09,20,15.30
2015,05,31,09,21,15.20
2015,05,31,09,22,15.20
2015,05,31,09,23,15.20
2015,05,31,09,24,15.10
2015,05,31,09,25,15.10
2015,05,31,09,26,15.10
2015,05,31,09,27,15.10
2015,05,31,09,28,15.20
2015,05,31,09,29,15.20
2015,05,31,09,30,15.30
2015,05,31,09,31,15.30
2015,05,31,09,32,15.30
2015,05,31,09,33,15.40
2015,05,31,09,34,15.40
2015,05,31,09,35,15.50
2015,05,31,09,36,15.60
2015,05,31,09,37,15.70
2015,05,31,09,38,15.70
2015,05,31,09,39,15.80
2015,05,31,09,40,15.90
2015,05,31,09,41,16.00
2015,05,31,09,42,16.10
2015,05,31,09,43,16.20
2015,05,31,09,44,16.40
2015,05,31,09,45,16.40
2015,05,31,09,46,16.40
2015,05,31,09,47,16.40
2015,05,31,09,48,16.40
2015,05,31,09,49,16.40
2015,05,31,09,50,16.50
2015,05,31,09,51,16.50
2015,05,31,09,52,16.60
2015,05,31,09,53,16.70
2015,05,31,09,54,16.80
2015,05,31,09,55,16.80
2015,05,31,09,56,16.90
2015,05,31,09,57,16.90
2015,05,31,09,58,16.90
2015,05,31,09,59,16.90
2015,05,31,10,00,17.00
2015,05,31,10,01,17.00
2015,05,31,10,02,17.00
2015,05,31,10,03,17.00
2015,05,31,10,04,17.00
2015,05,31,10,05,17.00
2015,05,31,10,06,16.90
2015,05,31,10,07,16.90
2015,05,31,10,08,16.80
2015,05,31,10,09,16.80
2015,05,31,10,10,16.80
2015,05,31,10,11,16.80
2015,05,31,10,12,16.80
2015,05,31,10,13,16.80
2015,05,31,10,14,16.90
2015,05,31,10,15,17.00
2015,05,31,10,16,17.00
2015,05,31,10,17,17.20
2015,05,31,10,18,17.30
2015,05,31,10,19,17.50
2015,05,31,10,20,17.70
2015,05,31,10,21,17.80
2015,05,31,10,22,17.90
2015,05,31,10,23,18.10
2015,05,31,10,24,18.20
2015,05,31,10,25,18.20
2015,05,31,10,26,18.20
2015,05,31,10,27,18.20
2015,05,31,10,28,18.20
2015,05,31,10,29,18.30
2015,05,31,10,30,18.40
2015,05,31,10,31,18.60
2015,05,31,10,32,18.70
2015,05,31,10,33,18.90
2015,05,31,10,34,19.10
2015,05,31,10,35,19.20
2015,05,31,10,36,19.30
2015,05,31,10,37,19.30
2015,05,31,10,38,19.20
2015,05,31,10,39,19.10
2015,05,31,10,40,19.00
2015,05,31,10,41,18.90
2015,05,31,10,42,18.80
2015,05,31,10,43,18.70
2015,05,31,10,44,18.70
2015,05,31,10,45,18.70
2015,05,31,10,46,18.70
2015,05,31,10,47,18.70
2015,05,31,10,48,18.60
2015,05,31,10,49,18.60
2015,05,31,10,50,18.50
2015,05,31,10,51,18.30
2015,05,31,10,52,18.20
2015,05,31,10,53,18.00
2015,05,31,10,54,17.90
2015,05,31,10,55,17.80
2015,05,31,10,56,17.80
2015,05,31,10,57,17.80
2015,05,31,10,58,17.80
2015,05,31,10,59,17.80
2015,05,31,11,00,17.80
2015,05,31,11,01,17.80
2015,05,31,11,02,17.80
2015,05,31,11,03,17.80
2015,05,31,11,04,17.80
2015,05,31,11,05,17.80
2015,05,31,11,06,17.70
2015,05,31,11,07,17.70
2015,05,31,11,08,17.60
2015,05,31,11,09,17.60
2015,05,31,11,10,17.50
2015,05,31,11,11,17.50
2015,05,31,11,12,17.50
2015,05,31,11,13,17.50
2015,05,31,11,14,17.50
2015,05,31,11,15,17.60
2015,05,31,11,16,17.60
2015,05,31,11,17,17.70
2015,05,31,11,18,17.80
2015,05,31,11,19,17.80
2015,05,31,11,20,17.90
2015,05,31,11,21,17.90
2015,05,31,11,22,17.90
2015,05,31,11,23,18.00
2015,05,31,11,24,18.10
2015,05,31,11,25,18.20
2015,05,31,11,26,18.20
2015,05,31,11,27,18.30
2015,05,31,11,28,18.40
2015,05,31,11,29,18.50
2015,05,31,11,30,18.50
2015,05,31,11,31,18.60
2015,05,31,11,32,18.70
2015,05,31,11,33,18.80
2015,05,31,11,34,18.90
2015,05,31,11,35,19.10
2015,05,31,11,36,19.10
2015,05,31,11,37,19.20
2015,05,31,11,38,19.10
2015,05,31,11,39,19.10
2015,05,31,11,40,18.90
2015,05,31,11,41,18.80
2015,05,31,11,42,18.80
2015,05,31,11,43,18.70
2015,05,31,11,44,18.80
2015,05,31,11,45,18.80
2015,05,31,11,46,18.80
2015,05,31,11,47,18.80
2015,05,31,11,48,18.80
2015,05,31,11,49,18.70
2015,05,31,11,50,18.60
2015,05,31,11,51,18.50
2015,05,31,11,52,18.40
2015,05,31,11,53,18.40
2015,05,31,11,54,18.40
2015,05,31,11,55,18.40
2015,05,31,11,56,18.40
2015,05,31,11,57,18.30
2015,05,31,11,58,18.30
2015,05,31,11,59,18.30
2015,05,31,12,00,18.30
2015,05,31,12,01,18.30
2015,05,31,12,02,18.30
2015,05,31,12,03,18.30
2015,05,31,12,04,18.30
2015,05,31,12,05,18.30
2015,05,31,12,06,18.40
2015,05,31,12,07,18.40
2015,05,31,12,08,18.40
2015,05,31,12,09,18.30
2015,05,31,12,10,18.30
2015,05,31,12,11,18.40
2015,05,31,12,12,18.40
2015,05,31,12,13,18.40
2015,05,31,12,14,18.40
2015,05,31,12,15,18.40
2015,05,31,12,16,18.40
2015,05,31,12,17,18.50
2015,05,31,12,18,18.40
2015,05,31,12,19,18.40
2015,05,31,12,20,18.40
2015,05,31,12,21,18.30
2015,05,31,12,22,18.30
2015,05,31,12,23,18.20
2015,05,31,12,24,18.20
2015,05,31,12,25,18.20
2015,05,31,12,26,18.30
2015,05,31,12,27,18.30
2015,05,31,12,28,18.40
2015,05,31,12,29,18.40
2015,05,31,12,30,18.40
2015,05,31,12,31,18.40
2015,05,31,12,32,18.50
2015,05,31,12,33,18.50
2015,05,31,12,34,18.40
2015,05,31,12,35,18.30
2015,05,31,12,36,18.30
2015,05,31,12,37,18.30
2015,05,31,12,38,18.40
2015,05,31,12,39,18.60
2015,05,31,12,40,18.70
2015,05,31,12,41,18.80
2015,05,31,12,42,18.90
2015,05,31,12,43,18.90
2015,05,31,12,44,19.00
2015,05,31,12,45,19.10
2015,05,31,12,46,19.20
2015,05,31,12,47,19.20
2015,05,31,12,48,19.20
2015,05,31,12,49,19.10
2015,05,31,12,50,19.20
2015,05,31,12,51,19.20
2015,05,31,12,52,19.30
2015,05,31,12,53,19.40
2015,05,31,12,54,19.50
2015,05,31,12,55,19.60
2015,05,31,12,56,19.50
2015,05,31,12,57,19.50
2015,05,31,12,58,19.40
2015,05,31,12,59,19.40
2015,05,31,13,00,19.40
2015,05,31,13,01,19.50
2015,05,31,13,02,19.60
2015,05,31,13,03,19.70
2015,05,31,13,04,19.90
2015,05,31,13,05,20.10
2015,05,31,13,06,20.10
2015,05,31,13,07,20.00
2015,05,31,13,08,19.90
2015,05,31,13,09,19.80
2015,05,31,13,10,19.70
2015,05,31,13,11,19.60
2015,05,31,13,12,19.50
2015,05,31,13,13,19.50
2015,05,31,13,14,19.50
2015,05,31,13,15,19.50
2015,05,31,13,16,19.50
2015,05,31,13,17,19.60
2015,05,31,13,18,19.60
2015,05,31,13,19,19.70
2015,05,31,13,20,19.80
2015,05,31,13,21,19.90
2015,05,31,13,22,20.00
2015,05,31,13,23,20.10
2015,05,31,13,24,20.20
2015,05,31,13,25,20.30
2015,05,31,13,26,20.50
2015,05,31,13,27,20.60
2015,05,31,13,28,20.70
2015,05,31,13,29,20.70
2015,05,31,13,30,20.70
2015,05,31,13,31,20.70
2015,05,31,13,32,20.80
2015,05,31,13,33,20.90
2015,05,31,13,34,21.00
2015,05,31,13,35,21.20
2015,05,31,13,36,21.30
2015,05,31,13,37,21.30
2015,05,31,13,38,21.30
2015,05,31,13,39,21.40
2015,05,31,13,40,21.50
2015,05,31,13,41,21.60
2015,05,31,13,42,21.60
2015,05,31,13,43,21.50
2015,05,31,13,44,21.50
2015,05,31,13,45,21.50
2015,05,31,13,46,21.40
2015,05,31,13,47,21.40
2015,05,31,13,48,21.50
2015,05,31,13,49,21.50
2015,05,31,13,50,21.40
2015,05,31,13,51,21.40
2015,05,31,13,52,21.40
2015,05,31,13,53,21.40
2015,05,31,13,54,21.40
2015,05,31,13,55,21.40
2015,05,31,13,56,21.50
2015,05,31,13,57,21.50
2015,05,31,13,58,21.70
2015,05,31,13,59,21.70
2015,05,31,14,00,21.60
2015,05,31,14,01,21.50
2015,05,31,14,02,21.40
2015,05,31,14,03,21.50
2015,05,31,14,04,21.50
2015,05,31,14,05,21.60
2015,05,31,14,06,21.80
2015,05,31,14,07,21.90
2015,05,31,14,08,22.00
2015,05,31,14,09,22.10
2015,05,31,14,10,22.10
2015,05,31,14,11,22.10
2015,05,31,14,12,22.00
2015,05,31,14,13,21.90
2015,05,31,14,14,21.70
2015,05,31,14,15,21.50
2015,05,31,14,16,21.30
2015,05,31,14,17,21.20
2015,05,31,14,18,21.00
2015,05,31,14,19,21.00
2015,05,31,14,20,20.90
2015,05,31,14,21,20.80
2015,05,31,14,22,20.70
2015,05,31,14,23,20.60
2015,05,31,14,24,20.50
2015,05,31,14,25,20.40
2015,05,31,14,26,20.50
2015,05,31,14,27,20.50
2015,05,31,14,28,20.50
2015,05,31,14,29,20.40
2015,05,31,14,30,20.30
2015,05,31,14,31,20.30
2015,05,31,14,32,20.30
2015,05,31,14,33,20.30
2015,05,31,14,34,20.30
2015,05,31,14,35,20.20
2015,05,31,14,36,20.20
2015,05,31,14,37,20.20
2015,05,31,14,38,20.30
2015,05,31,14,39,20.30
2015,05,31,14,40,20.30
2015,05,31,14,41,20.30
2015,05,31,14,42,20.30
2015,05,31,14,43,20.30
2015,05,31,14,44,20.30
2015,05,31,14,45,20.30
2015,05,31,14,46,20.30
2015,05,31,14,47,20.40
2015,05,31,14,48,20.40
2015,05,31,14,49,20.40
2015,05,31,14,50,20.40
2015,05,31,14,51,20.40
2015,05,31,14,52,20.30
2015,05,31,14,53,20.30
2015,05,31,14,54,20.30
2015,05,31,14,55,20.30
2015,05,31,14,56,20.30
2015,05,31,14,57,20.40
2015,05,31,14,58,20.40
2015,05,31,14,59,20.40
2015,05,31,15,00,20.40
2015,05,31,15,01,20.40
2015,05,31,15,02,20.50
2015,05,31,15,03,20.50
2015,05,31,15,04,20.50
2015,05,31,15,05,20.50
2015,05,31,15,06,20.40
2015,05,31,15,07,20.40
2015,05,31,15,08,20.40
2015,05,31,15,09,20.40
2015,05,31,15,10,20.40
2015,05,31,15,11,20.40
2015,05,31,15,12,20.30
2015,05,31,15,13,20.20
2015,05,31,15,14,20.20
2015,05,31,15,15,20.10
2015,05,31,15,16,20.10
2015,05,31,15,17,20.10
2015,05,31,15,18,20.10
2015,05,31,15,19,20.20
2015,05,31,15,20,20.30
2015,05,31,15,21,20.40
2015,05,31,15,22,20.40
2015,05,31,15,23,20.40
2015,05,31,15,24,20.30
2015,05,31,15,25,20.30
2015,05,31,15,26,20.30
2015,05,31,15,27,20.30
2015,05,31,15,28,20.30
2015,05,31,15,29,20.30
2015,05,31,15,30,20.40
2015,05,31,15,31,20.50
2015,05,31,15,32,20.60
2015,05,31,15,33,20.60
2015,05,31,15,34,20.50
2015,05,31,15,35,20.40
2015,05,31,15,36,20.40
2015,05,31,15,37,20.40
2015,05,31,15,38,20.40
2015,05,31,15,39,20.50
2015,05,31,15,40,20.60
2015,05,31,15,41,20.70
2015,05,31,15,42,20.70
2015,05,31,15,43,20.80
2015,05,31,15,44,20.80
2015,05,31,15,45,20.90
2015,05,31,15,46,20.80
2015,05,31,15,47,20.80
2015,05,31,15,48,20.80
2015,05,31,15,49,20.80
2015,05,31,15,50,20.80
2015,05,31,15,51,20.80
2015,05,31,15,52,20.80
2015,05,31,15,53,20.80
2015,05,31,15,54,20.80
2015,05,31,15,55,20.70
2015,05,31,15,56,20.70
2015,05,31,15,57,20.70
2015,05,31,15,58,20.80
2015,05,31,15,59,20.80
2015,05,31,16,00,20.80
2015,05,31,16,01,20.80
2015,05,31,16,02,20.80
2015,05,31,16,03,20.80
2015,05,31,16,04,20.80
2015,05,31,16,05,20.70
2015,05,31,16,06,20.70
2015,05,31,16,07,20.70
2015,05,31,16,08,20.70
2015,05,31,16,09,20.60
2015,05,31,16,10,20.60
2015,05,31,16,11,20.60
2015,05,31,16,12,20.60
2015,05,31,16,13,20.60
2015,05,31,16,14,20.60
2015,05,31,16,15,20.70
2015,05,31,16,16,20.70
2015,05,31,16,17,20.70
2015,05,31,16,18,20.80
2015,05,31,16,19,20.80
2015,05,31,16,20,20.80
2015,05,31,16,21,20.80
2015,05,31,16,22,20.80
2015,05,31,16,23,20.80
2015,05,31,16,24,20.80
2015,05,31,16,25,20.80
2015,05,31,16,26,20.80
2015,05,31,16,27,20.80
2015,05,31,16,28,20.80
2015,05,31,16,29,20.80
2015,05,31,16,30,20.80
2015,05,31,16,31,20.80
2015,05,31,16,32,20.80
2015,05,31,16,33,20.90
2015,05,31,16,34,21.00
2015,05,31,16,35,21.10
2015,05,31,16,36,21.10
2015,05,31,16,37,21.20
2015,05,31,16,38,21.30
2015,05,31,16,39,21.30
2015,05,31,16,40,21.40
2015,05,31,16,41,21.40
2015,05,31,16,42,21.40
2015,05,31,16,43,21.30
2015,05,31,16,44,21.30
2015,05,31,16,45,21.20
2015,05,31,16,46,21.20
2015,05,31,16,47,21.10
2015,05,31,16,48,21.10
2015,05,31,16,49,21.10
2015,05,31,16,50,21.10
2015,05,31,16,51,21.10
2015,05,31,16,52,21.10
2015,05,31,16,53,21.10
2015,05,31,16,54,21.20
2015,05,31,16,55,21.20
2015,05,31,16,56,21.20
2015,05,31,16,57,21.30
2015,05,31,16,58,21.30
2015,05,31,16,59,21.40
2015,05,31,17,00,21.40
2015,05,31,17,01,21.50
2015,05,31,17,02,21.50
2015,05,31,17,03,21.50
2015,05,31,17,04,21.40
2015,05,31,17,05,21.40
2015,05,31,17,06,21.40
2015,05,31,17,07,21.40
2015,05,31,17,08,21.50
2015,05,31,17,09,21.50
2015,05,31,17,10,21.50
2015,05,31,17,11,21.60
2015,05,31,17,12,21.60
2015,05,31,17,13,21.60
2015,05,31,17,14,21.70
2015,05,31,17,15,21.70
2015,05,31,17,16,21.70
2015,05,31,17,17,21.70
2015,05,31,17,18,21.80
2015,05,31,17,19,21.80
2015,05,31,17,20,21.70
2015,05,31,17,21,21.70
2015,05,31,17,22,21.70
2015,05,31,17,23,21.70
2015,05,31,17,24,21.60
2015,05,31,17,25,21.60
2015,05,31,17,26,21.50
2015,05,31,17,27,21.40
2015,05,31,17,28,21.40
2015,05,31,17,29,21.40
2015,05,31,17,30,21.40
2015,05,31,17,31,21.40
2015,05,31,17,32,21.40
2015,05,31,17,33,21.50
2015,05,31,17,34,21.50
2015,05,31,17,35,21.50
2015,05,31,17,36,21.50
2015,05,31,17,37,21.50
2015,05,31,17,38,21.50
2015,05,31,17,39,21.60
2015,05,31,17,40,21.60
2015,05,31,17,41,21.60
2015,05,31,17,42,21.60
2015,05,31,17,43,21.60
2015,05,31,17,44,21.70
2015,05,31,17,45,21.70
2015,05,31,17,46,21.70
2015,05,31,17,47,21.70
2015,05,31,17,48,21.80
2015,05,31,17,49,21.80
2015,05,31,17,50,21.90
2015,05,31,17,51,21.90
2015,05,31,17,52,21.80
2015,05,31,17,53,21.70
2015,05,31,17,54,21.70
2015,05,31,17,55,21.70
2015,05,31,17,56,21.60
2015,05,31,17,57,21.60
2015,05,31,17,58,21.50
2015,05,31,17,59,21.50
2015,05,31,18,00,21.40
2015,05,31,18,01,21.30
2015,05,31,18,02,21.20
2015,05,31,18,03,21.00
2015,05,31,18,04,20.90
2015,05,31,18,05,20.90
2015,05,31,18,06,20.80
2015,05,31,18,07,20.80
2015,05,31,18,08,20.80
2015,05,31,18,09,20.70
2015,05,31,18,10,20.70
2015,05,31,18,11,20.70
2015,05,31,18,12,20.70
2015,05,31,18,13,20.70
2015,05,31,18,14,20.60
2015,05,31,18,15,20.60
2015,05,31,18,16,20.60
2015,05,31,18,17,20.60
2015,05,31,18,18,20.60
2015,05,31,18,19,20.60
2015,05,31,18,20,20.60
2015,05,31,18,21,20.60
2015,05,31,18,22,20.50
2015,05,31,18,23,20.50
2015,05,31,18,24,20.50
2015,05,31,18,25,20.40
2015,05,31,18,26,20.40
2015,05,31,18,27,20.40
2015,05,31,18,28,20.40
2015,05,31,18,29,20.30
2015,05,31,18,30,20.20
2015,05,31,18,31,20.10
2015,05,31,18,32,20.00
2015,05,31,18,33,19.90
2015,05,31,18,34,19.70
2015,05,31,18,35,19.60
2015,05,31,18,36,19.50
2015,05,31,18,37,19.40
2015,05,31,18,38,19.30
2015,05,31,18,39,19.30
2015,05,31,18,40,19.20
2015,05,31,18,41,19.20
2015,05,31,18,42,19.20
2015,05,31,18,43,19.20
2015,05,31,18,44,19.20
2015,05,31,18,45,19.20
2015,05,31,18,46,19.20
2015,05,31,18,47,19.20
2015,05,31,18,48,19.30
2015,05,31,18,49,19.30
2015,05,31,18,50,19.30
2015,05,31,18,51,19.40
2015,05,31,18,52,19.40
2015,05,31,18,53,19.40
2015,05,31,18,54,19.50
2015,05,31,18,55,19.50
2015,05,31,18,56,19.50
2015,05,31,18,57,19.50
2015,05,31,18,58,19.40
2015,05,31,18,59,19.40
2015,05,31,19,00,19.50
2015,05,31,19,01,19.50
2015,05,31,19,02,19.50
2015,05,31,19,03,19.50
2015,05,31,19,04,19.60
2015,05,31,19,05,19.60
2015,05,31,19,06,19.60
2015,05,31,19,07,19.60
2015,05,31,19,08,19.60
2015,05,31,19,09,19.70
2015,05,31,19,10,19.70
2015,05,31,19,11,19.70
2015,05,31,19,12,19.70
2015,05,31,19,13,19.70
2015,05,31,19,14,19.70
2015,05,31,19,15,19.70
2015,05,31,19,16,19.60
2015,05,31,19,17,19.60
2015,05,31,19,18,19.60
2015,05,31,19,19,19.60
2015,05,31,19,20,19.60
2015,05,31,19,21,19.60
2015,05,31,19,22,19.60
2015,05,31,19,23,19.60
2015,05,31,19,24,19.50
2015,05,31,19,25,19.50
2015,05,31,19,26,19.50
2015,05,31,19,27,19.50
2015,05,31,19,28,19.50
2015,05,31,19,29,19.50
2015,05,31,19,30,19.50
2015,05,31,19,31,19.50
2015,05,31,19,32,19.50
2015,05,31,19,33,19.50
2015,05,31,19,34,19.50
2015,05,31,19,35,19.50
2015,05,31,19,36,19.50
2015,05,31,19,37,19.60
2015,05,31,19,38,19.60
2015,05,31,19,39,19.60
2015,05,31,19,40,19.50
2015,05,31,19,41,19.50
2015,05,31,19,42,19.50
2015,05,31,19,43,19.50
2015,05,31,19,44,19.50
2015,05,31,19,45,19.50
2015,05,31,19,46,19.50
2015,05,31,19,47,19.50
2015,05,31,19,48,19.40
2015,05,31,19,49,19.40
2015,05,31,19,50,19.40
2015,05,31,19,51,19.40
2015,05,31,19,52,19.40
2015,05,31,19,53,19.40
2015,05,31,19,54,19.40
2015,05,31,19,55,19.40
2015,05,31,19,56,19.40
2015,05,31,19,57,19.30
2015,05,31,19,58,19.30
2015,05,31,19,59,19.30
2015,05,31,20,00,19.30
2015,05,31,20,01,19.30
2015,05,31,20,02,19.30
2015,05,31,20,03,19.30
2015,05,31,20,04,19.30
2015,05,31,20,05,19.30
2015,05,31,20,06,19.30
2015,05,31,20,07,19.30
2015,05,31,20,08,19.30
2015,05,31,20,09,19.30
2015,05,31,20,10,19.30
2015,05,31,20,11,19.30
2015,05,31,20,12,19.30
2015,05,31,20,13,19.30
2015,05,31,20,14,19.20
2015,05,31,20,15,19.20
2015,05,31,20,16,19.20
2015,05,31,20,17,19.20
2015,05,31,20,18,19.20
2015,05,31,20,19,19.10
2015,05,31,20,20,19.10
2015,05,31,20,21,19.10
2015,05,31,20,22,19.00
2015,05,31,20,23,19.00
2015,05,31,20,24,18.90
2015,05,31,20,25,18.90
2015,05,31,20,26,18.80
2015,05,31,20,27,18.80
2015,05,31,20,28,18.70
2015,05,31,20,29,18.70
2015,05,31,20,30,18.70
2015,05,31,20,31,18.60
2015,05,31,20,32,18.60
2015,05,31,20,33,18.60
2015,05,31,20,34,18.60
2015,05,31,20,35,18.50
2015,05,31,20,36,18.50
2015,05,31,20,37,18.50
2015,05,31,20,38,18.50
2015,05,31,20,39,18.50
2015,05,31,20,40,18.50
2015,05,31,20,41,18.40
2015,05,31,20,42,18.40
2015,05,31,20,43,18.40
2015,05,31,20,44,18.40
2015,05,31,20,45,18.40
2015,05,31,20,46,18.30
2015,05,31,20,47,18.30
2015,05,31,20,48,18.30
2015,05,31,20,49,18.30
2015,05,31,20,50,18.30
2015,05,31,20,51,18.30
2015,05,31,20,52,18.30
2015,05,31,20,53,18.30
2015,05,31,20,54,18.20
2015,05,31,20,55,18.20
2015,05,31,20,56,18.20
2015,05,31,20,57,18.20
2015,05,31,20,58,18.10
2015,05,31,20,59,18.10